User: anonymous   Login
Location: Austin, TX
(30.3000°N, 97.7500°W)
Time: 20:58:49
(UTC-06:00)
Language:

Cosmos 2082 Rocket - Orbit

View from above orbital plane
View from above orbital plane
View from above satellite
View from above satellite

Ground track
Ground track

The orbit data is extracted from the following two-line orbital elements,

1 20625U 90046B   14331.16615584 -.00000172  00000-0 -65031-4 0  8756
2 20625 070.9992 307.2678 0011913 082.3496 352.3314 14.14547645265895
Epoch (UTC): 27 November 2014 03:59:15
Eccentricity: 0.0011913
inclination: 70.9992°
perigee height: 835 km
apogee height: 852 km
right ascension of ascending node: 307.2678°
argument of perigee: 82.3496°
revolutions per day: 14.14547645
mean anomaly at epoch: 352.3314°
orbit number at epoch: 26589

The dashed part of the orbit path shows where the satellite is in the earth's shadow,  

DLR